Shenandoah, IA

11:53 AM CDT on June 22, 2017 (GMT -0500)
Shenandoah Municipal

Weather History for KSDA - April, 2013

Change the Weather History Date:

Thursday, April 18, 2013

  Actual Average Record
Temperature  
Mean Temperature 36 °F -  
Max Temperature 39 °F 64 °F 95 °F (2002)
Min Temperature 32 °F 41 °F 19 °F (1953)
Degree Days  
Heating Degree Days 30    
Moisture  
Dew Point 30 °F    
Average Humidity 80    
Maximum Humidity 87    
Minimum Humidity 70    
Precipitation  
Precipitation 0.24 in - - ()
Sea Level Pressure  
Sea Level Pressure 29.76 in    
Wind  
Wind Speed 17 mph (NNW)    
Max Wind Speed 24 mph    
Max Gust Speed 38 mph    
Visibility 7 miles    
Events Rain    
Averages and records for this station are not official NWS values.
T = Trace of Precipitation, MM = Missing Value Source: NWS Daily Summary

Daily Weather History Graph

Daily Weather History Graph

Search for Another Location

Airport or City:

Trip Planner

Search our weather history database for the weather conditions in past years. The results will help you decide how hot, cold, wet, or windy it might be!

Date:

Astronomy

Apr. 18, 2013 Rise Set
Actual Time 6:37 AM CDT 8:04 PM CDT
Civil Twilight 6:09 AM CDT 8:33 PM CDT
Nautical Twilight 5:34 AM CDT 9:07 PM CDT
Astronomical Twilight 4:58 AM CDT 9:44 PM CDT
Moon 12:50 PM CDT (4/18) 2:20 AM CDT (4/18)
Length of Visible Light 14h 23m
Length of Day
13h 26m
First Quarter, 52% of the Moon is Illuminated
Apr 18
First Quarter
Apr 25
Full
May 2
Last Quarter
May 9
New
May 17
First Quarter

Hourly Weather History & Observations

Time (CDT) Temp. Windchill Dew Point Humidity Pressure Visibility Wind Dir Wind Speed Gust Speed Precip Events Conditions
12:15 AM 39.2 °F 29.6 °F 33.8 °F 81% 29.77 in 4.0 mi NNW 19.6 mph - N/A Rain Light Rain
12:35 AM 37.4 °F 28.2 °F 33.8 °F 87% 29.76 in 2.0 mi NNW 16.1 mph 35.7 mph 0.12 in   Overcast
12:55 AM 37.4 °F 28.9 °F 33.8 °F 87% 29.75 in 10.0 mi NNE 13.8 mph 23.0 mph 0.12 in Rain Light Rain
1:15 AM 37.4 °F 27.8 °F 33.8 °F 87% 29.75 in 4.0 mi NNE 17.3 mph - 0.04 in Rain Light Rain
1:35 AM 37.4 °F 28.2 °F 33.8 °F 87% 29.74 in 10.0 mi North 16.1 mph 20.7 mph 0.06 in Rain Light Rain
1:55 AM 37.4 °F 29.3 °F 33.8 °F 87% 29.77 in 10.0 mi NNW 12.7 mph 16.1 mph 0.06 in   Drizzle
2:15 AM 37.4 °F 28.2 °F 33.8 °F 87% 29.75 in 2.5 mi North 16.1 mph 20.7 mph 0.02 in Rain Light Rain
2:35 AM 37.4 °F 27.5 °F 32.0 °F 81% 29.76 in 5.0 mi North 18.4 mph 24.2 mph 0.02 in Rain Light Rain
2:55 AM 35.6 °F 24.5 °F 32.0 °F 87% 29.67 in 4.0 mi NNE 20.7 mph 38.0 mph 0.03 in Rain Light Rain
3:15 AM 35.6 °F 24.5 °F 32.0 °F 87% 29.71 in 10.0 mi North 20.7 mph 25.3 mph 0.01 in   Light Drizzle
3:35 AM 35.6 °F 24.8 °F 32.0 °F 87% 29.70 in 10.0 mi North 19.6 mph - 0.01 in   Overcast
3:55 AM 35.6 °F 26.2 °F 32.0 °F 87% 29.70 in 10.0 mi North 15.0 mph 24.2 mph 0.01 in   Overcast
4:15 AM 35.6 °F 25.9 °F 32.0 °F 87% 29.67 in 7.0 mi North 16.1 mph 25.3 mph 0.02 in Rain Light Rain
4:35 AM 35.6 °F 25.9 °F 32.0 °F 87% 29.68 in 7.0 mi North 16.1 mph 24.2 mph 0.02 in Rain Light Rain
4:55 AM 35.6 °F 25.9 °F 32.0 °F 87% 29.67 in 10.0 mi NNE 16.1 mph 24.2 mph 0.02 in   Light Drizzle
5:15 AM 35.6 °F 27.5 °F 32.0 °F 87% 29.68 in 10.0 mi North 11.5 mph 19.6 mph N/A   Overcast
5:35 AM 35.6 °F 26.2 °F 30.2 °F 81% 29.68 in 7.0 mi North 15.0 mph 19.6 mph N/A   Light Drizzle
5:55 AM 35.6 °F 27.5 °F 30.2 °F 81% 29.67 in 7.0 mi North 11.5 mph 17.3 mph N/A Rain Light Rain
6:15 AM 35.6 °F 27.5 °F 30.2 °F 81% 29.67 in 5.0 mi North 11.5 mph - N/A   Drizzle
6:35 AM 35.6 °F 27.5 °F 30.2 °F 81% 29.67 in 4.0 mi North 11.5 mph 18.4 mph N/A   Drizzle
6:55 AM 35.6 °F 28.0 °F 30.2 °F 81% 29.69 in 3.0 mi NNW 10.4 mph 18.4 mph N/A   Drizzle
7:15 AM 35.6 °F 27.1 °F 30.2 °F 81% 29.69 in 1.2 mi NNW 12.7 mph - N/A   Drizzle
7:35 AM 35.6 °F 27.5 °F 30.2 °F 81% 29.72 in 1.8 mi NNW 11.5 mph 17.3 mph N/A   Drizzle
7:55 AM 35.6 °F 27.1 °F 30.2 °F 81% 29.70 in 1.5 mi NNW 12.7 mph 21.9 mph N/A Rain Rain
8:15 AM 33.8 °F 24.3 °F 30.2 °F 87% 29.70 in 1.8 mi NNW 13.8 mph 24.2 mph N/A   Drizzle
8:35 AM 33.8 °F 23.2 °F 30.2 °F 87% 29.71 in 2.0 mi NNW 17.3 mph 23.0 mph N/A   Light Drizzle
8:55 AM 33.8 °F 24.8 °F 30.2 °F 87% 29.70 in 1.5 mi NW 12.7 mph 24.2 mph N/A Rain Light Rain
9:15 AM 33.8 °F 23.5 °F 30.2 °F 87% 29.70 in 1.8 mi NNW 16.1 mph 20.7 mph N/A   Light Drizzle
9:35 AM 35.6 °F 25.2 °F 30.2 °F 81% 29.70 in 1.8 mi NNW 18.4 mph 26.5 mph N/A Rain Light Rain
9:55 AM 35.6 °F 25.2 °F 30.2 °F 81% 29.70 in 1.8 mi NNW 18.4 mph 24.2 mph N/A Rain Light Rain
10:15 AM 35.6 °F 25.9 °F 30.2 °F 81% 29.71 in 1.5 mi NNW 16.1 mph 27.6 mph N/A Rain Light Rain
10:35 AM 35.6 °F 23.7 °F 30.2 °F 81% 29.70 in 2.5 mi NNW 24.2 mph 29.9 mph N/A Rain Light Rain
10:55 AM 35.6 °F 24.2 °F 30.2 °F 81% 29.71 in 2.5 mi NNW 21.9 mph 31.1 mph N/A   Drizzle
11:15 AM 35.6 °F 24.8 °F 30.2 °F 81% 29.71 in 3.0 mi NNW 19.6 mph 26.5 mph N/A Rain Light Rain
11:35 AM 35.6 °F 25.2 °F 30.2 °F 81% 29.72 in 5.0 mi NNW 18.4 mph 25.3 mph N/A Rain Light Rain
11:55 AM 35.6 °F 25.9 °F 30.2 °F 81% 29.73 in 3.0 mi NW 16.1 mph 32.2 mph N/A Rain Light Rain
12:15 PM 33.8 °F 23.2 °F 28.4 °F 81% 29.72 in 5.0 mi NNW 17.3 mph 27.6 mph N/A Rain Light Rain
12:35 PM 35.6 °F 24.8 °F 30.2 °F 81% 29.72 in 7.0 mi NNW 19.6 mph 32.2 mph N/A   Overcast
12:55 PM 35.6 °F 23.7 °F 30.2 °F 81% 29.72 in 4.0 mi NNW 24.2 mph 31.1 mph N/A Rain Light Rain
1:15 PM 35.6 °F 25.5 °F 30.2 °F 81% 29.73 in 5.0 mi NW 17.3 mph 25.3 mph N/A   Light Drizzle
1:35 PM 35.6 °F 25.5 °F 30.2 °F 81% 29.75 in 10.0 mi NW 17.3 mph 25.3 mph N/A Rain Light Rain
1:55 PM 35.6 °F 25.5 °F 30.2 °F 81% 29.75 in 10.0 mi NW 17.3 mph 27.6 mph N/A   Overcast
2:15 PM 37.4 °F 27.5 °F 30.2 °F 75% 29.77 in 10.0 mi NW 18.4 mph 31.1 mph N/A   Overcast
2:35 PM 37.4 °F 28.5 °F 30.2 °F 75% 29.77 in 10.0 mi NW 15.0 mph 23.0 mph N/A   Overcast
2:55 PM 35.6 °F 25.9 °F 28.4 °F 75% 29.78 in 10.0 mi NW 16.1 mph 27.6 mph N/A   Overcast
3:35 PM 35.6 °F 24.2 °F 28.4 °F 75% 29.79 in 10.0 mi NW 21.9 mph 29.9 mph N/A   Overcast
3:55 PM 35.6 °F 25.9 °F 28.4 °F 75% 29.79 in 10.0 mi NW 16.1 mph 27.6 mph N/A   Overcast
4:15 PM 37.4 °F 27.2 °F 30.2 °F 75% 29.79 in 10.0 mi NW 19.6 mph 28.8 mph N/A   Overcast
4:35 PM 37.4 °F 27.8 °F 28.4 °F 70% 29.80 in 10.0 mi NW 17.3 mph 26.5 mph N/A   Overcast
4:55 PM 37.4 °F 26.6 °F 28.4 °F 70% 29.80 in 10.0 mi NW 21.9 mph 28.8 mph N/A   Overcast
5:15 PM 35.6 °F 24.8 °F 28.4 °F 75% 29.81 in 10.0 mi NW 19.6 mph 29.9 mph N/A   Overcast
5:35 PM 35.6 °F 25.2 °F 28.4 °F 75% 29.82 in 10.0 mi NW 18.4 mph 27.6 mph N/A   Overcast
5:55 PM 35.6 °F 24.0 °F 28.4 °F 75% 29.83 in 10.0 mi NW 23.0 mph 32.2 mph N/A   Overcast
6:15 PM 35.6 °F 25.5 °F 28.4 °F 75% 29.84 in 10.0 mi NW 17.3 mph 29.9 mph N/A   Overcast
6:35 PM 35.6 °F 26.2 °F 28.4 °F 75% 29.85 in 10.0 mi NW 15.0 mph 23.0 mph N/A   Overcast
6:55 PM 35.6 °F 24.5 °F 26.6 °F 70% 29.85 in 10.0 mi NW 20.7 mph 27.6 mph N/A   Overcast
7:15 PM 35.6 °F 25.9 °F 28.4 °F 75% 29.86 in 10.0 mi NW 16.1 mph 26.5 mph N/A   Overcast
7:35 PM 35.6 °F 25.2 °F 26.6 °F 70% 29.86 in 10.0 mi NW 18.4 mph 21.9 mph N/A   Overcast
7:55 PM 35.6 °F 27.1 °F 26.6 °F 70% 29.87 in 10.0 mi NW 12.7 mph 25.3 mph N/A   Overcast
8:15 PM 35.6 °F 25.9 °F 26.6 °F 70% 29.88 in 10.0 mi NW 16.1 mph 25.3 mph N/A   Overcast
8:35 PM 35.6 °F 25.5 °F 26.6 °F 70% 29.88 in 10.0 mi NW 17.3 mph 25.3 mph N/A   Overcast
9:55 PM 33.8 °F 24.3 °F 26.6 °F 75% 29.91 in 10.0 mi NW 13.8 mph 28.8 mph N/A   Overcast
10:35 PM 33.8 °F 23.9 °F 26.6 °F 75% 29.91 in 10.0 mi NW 15.0 mph 24.2 mph N/A   Overcast
10:55 PM 33.8 °F 23.2 °F 26.6 °F 75% 29.90 in 10.0 mi WNW 17.3 mph 21.9 mph N/A   Overcast
11:15 PM 33.8 °F 23.2 °F 26.6 °F 75% 29.90 in 10.0 mi NW 17.3 mph 24.2 mph N/A   Overcast
11:35 PM 32.0 °F 21.6 °F 26.6 °F 80% 29.89 in 10.0 mi WNW 15.0 mph 21.9 mph N/A   Overcast
11:55 PM 33.8 °F 24.3 °F 26.6 °F 75% 29.89 in 10.0 mi WNW 13.8 mph 18.4 mph N/A   Overcast